This demonstration page uses our WeatherBlox Daily Observations layout. Learn more.

Left ArrowRight Arrow

36.19886, -115.1175

Hourly Observations for August 16, 2015

Temp ( °F °C ) Dew Point ( °F °C ) Humidity (%) Winds ( mph kmh ) Pressure ( in mb ) Visibility ( mi km ) Precip ( " mm )
12:53 am 00:53 Clear 89 31.7 48 8.9 24 24 N 5 7 29.83 1010 10 16 0.00 0.00
1:53 am 01:53 Clear 87 30.6 46 7.8 24 24 N 5 7 29.83 1010 10 16 0.00 0.00
2:53 am 02:53 Clear 86 30 46 7.8 25 25 NNW 6 9 29.84 1010 10 16 0.00 0.00
3:53 am 03:53 Clear 86 30 45 7.2 24 24 Calm 29.83 1010 10 16 0.00 0.00
4:53 am 04:53 Clear 84 28.9 47 8.3 27 27 Calm 29.84 1010 10 16 0.00 0.00
5:53 am 05:53 Clear 81 27.2 49 9.4 33 33 Calm 29.85 1011 10 16 0.00 0.00
6:53 am 06:53 Sunny 83 28.3 47 8.3 28 28 NW 5 7 29.87 1012 10 16 0.00 0.00
7:53 am 07:53 Sunny 87 30.6 46 7.8 24 24 N 3 6 29.88 1012 10 16 0.00 0.00
8:53 am 08:53 Sunny 93 33.9 47 8.3 21 21 VRB 3 6 29.87 1012 10 16 0.00 0.00
9:53 am 09:53 Sunny 97 36.1 44 6.7 16 16 Calm 29.88 1012 10 16 0.00 0.00
10:53 am 10:53 Sunny 100 37.8 44 6.7 15 15 Calm 29.86 1011 10 16 0.00 0.00
11:53 am 11:53 Sunny 104 40 44 6.7 13 13 VRB 6 9 29.84 1011 10 16 0.00 0.00
12:53 pm 12:53 Sunny 108 42.2 43 6.1 11 11 SSE 13 20 29.81 1010 10 16 0.00 0.00
1:53 pm 13:53 Sunny 111 43.9 41 5 9 9 SW 14 22 29.78 1009 10 16 0.00 0.00
2:08 pm 14:08 Sunny 109 43 39 4 9 9 W 9 15 29.59 1002 10 16 0.00 0.00
2:53 pm 14:53 Sunny 108 42.2 38 3.3 9 9 SSE 7 11 29.76 1008 10 16 0.00 0.00
3:53 pm 15:53 Sunny 111 43.9 38 3.3 8 8 S 18 30 29.73 1007 10 16 0.00 0.00
4:53 pm 16:53 Sunny 110 43.3 38 3.3 9 9 SW 10 17 29.72 1007 10 16 0.00 0.00
5:53 pm 17:53 Sunny 109 42.8 37 2.8 8 8 SSW 16 26 29.72 1006 10 16 0.00 0.00
6:53 pm 18:53 Sunny 107 41.7 35 1.7 8 8 SSW 15 24 29.72 1006 10 16 0.00 0.00
7:53 pm 19:53 Clear 104 40 36 2.2 9 9 SSW 9 15 29.72 1007 10 16 0.00 0.00
8:53 pm 20:53 Clear 101 38.3 36 2.2 10 10 S 8 13 29.73 1007 10 16 0.00 0.00
9:53 pm 21:53 Clear 98 36.7 37 2.8 12 12 SW 7 11 29.74 1007 10 16 0.00 0.00
10:53 pm 22:53 Clear 95 35 38 3.3 14 14 WSW 7 11 29.74 1007 10 16 0.00 0.00
11:53 pm 23:53 Clear 91 32.8 39 3.9 16 16 Calm 29.74 1007 10 16 0.00 0.00

Powered by AerisWeather